Juliana Airport, Sint Maarten

12:17 PM AST on August 21, 2017 (GMT -0400)
Princess Juliana International

Weather History for TNCM - December, 2012

Change the Weather History Date:

Saturday, December 8, 2012

  Actual Average Record
Temperature  
Mean Temperature 80 °F -  
Max Temperature 84 °F 82 °F 87 °F (1997)
Min Temperature 77 °F 73 °F 70 °F (2013)
Cooling Degree Days 16    
Growing Degree Days 30 (Base 50)    
Moisture  
Dew Point 69 °F    
Average Humidity 66    
Maximum Humidity 74    
Minimum Humidity 56    
Precipitation  
Precipitation 0.01 in 0.10 in - ()
Sea Level Pressure  
Sea Level Pressure 29.99 in    
Wind  
Wind Speed 11 mph ()    
Max Wind Speed 21 mph    
Max Gust Speed -    
Visibility 6.6 miles    
Events Rain    
Averages and records for this station are not official NWS values.
T = Trace of Precipitation, MM = Missing Value Source: Averaged Metar Reports

Daily Weather History Graph

Daily Weather History Graph

Search for Another Location

Airport or City:

Trip Planner

Search our weather history database for the weather conditions in past years. The results will help you decide how hot, cold, wet, or windy it might be!

Date:

Astronomy

Dec. 08, 2012 Rise Set
Actual Time 6:32 AM AST 5:37 PM AST
Civil Twilight 6:08 AM AST 6:00 PM AST
Nautical Twilight 5:41 AM AST 6:27 PM AST
Astronomical Twilight 5:14 AM AST 6:54 PM AST
Moon 1:28 AM AST (12/8) 1:32 PM AST (12/8)
Length of Visible Light 11h 52m
Length of Day
11h 04m
Waning Crescent, 29% of the Moon is Illuminated
Dec 8
Waning Crescent
Dec 13
New
Dec 20
First Quarter
Dec 28
Full
Jan 4
Last Quarter

Hourly Weather History & Observations

Time (AST) Temp. Heat Index Dew Point Humidity Pressure Visibility Wind Dir Wind Speed Gust Speed Precip Events Conditions
12:00 AM 78.8 °F - 69.8 °F 74% 29.95 in 6.2 mi East 12.7 mph - N/A   Scattered Clouds
1:00 AM 78.8 °F - 69.8 °F 74% 29.95 in 6.2 mi East 13.8 mph - N/A Rain Light Rain Showers
2:00 AM 79 °F - 70 °F 67% 29.96 in 16 mi East 12.7 mph - - Rain Light Rain Showers
2:00 AM 78.8 °F - 69.8 °F 74% 29.95 in 6.2 mi East 12.7 mph - N/A   Scattered Clouds
3:00 AM 80.6 °F 83.9 °F 69.8 °F 70% 29.92 in 6.2 mi East 13.8 mph - N/A   Scattered Clouds
4:00 AM 78.8 °F - 69.8 °F 74% 29.92 in 6.2 mi East 20.7 mph - N/A   Partly Cloudy
5:00 AM 80 °F - 70 °F 64% 29.96 in 25 mi East 10.4 mph - -   Scattered Clouds
5:00 AM 80.6 °F 83.9 °F 69.8 °F 70% 29.95 in 6.2 mi East 10.4 mph - N/A   Partly Cloudy
6:00 AM 80.6 °F 83.9 °F 69.8 °F 70% 29.98 in 6.2 mi East 11.5 mph - N/A   Partly Cloudy
7:00 AM 80.6 °F 83.9 °F 69.8 °F 70% 30.01 in 6.2 mi East 11.5 mph - N/A   Scattered Clouds
8:00 AM 81 °F - 70 °F 62% 30.03 in 28 mi East 9.2 mph - -   Partly Cloudy
8:00 AM 80.6 °F 83.9 °F 69.8 °F 70% 30.01 in 6.2 mi East 9.2 mph - N/A   Scattered Clouds
9:00 AM 82.4 °F 86.3 °F 69.8 °F 66% 30.04 in 6.2 mi East 17.3 mph - N/A   Scattered Clouds
10:00 AM 84.2 °F 88.4 °F 69.8 °F 62% 30.04 in 6.2 mi East 17.3 mph - N/A   Scattered Clouds
11:00 AM 83 °F - 70 °F 56% 30.05 in 31 mi East 13.8 mph - -   Scattered Clouds
11:00 AM 82.4 °F 86.3 °F 69.8 °F 66% 30.04 in 6.2 mi East 13.8 mph - N/A   Partly Cloudy
12:00 PM 84.2 °F 87.3 °F 68.0 °F 58% 30.04 in 6.2 mi ESE 10.4 mph - N/A   Scattered Clouds
1:00 PM 84.2 °F 88.4 °F 69.8 °F 62% 29.98 in 6.2 mi East 13.8 mph - N/A   Scattered Clouds
2:00 PM 82 °F - 69 °F 56% 29.96 in 37 mi ESE 15.0 mph - -   Partly Cloudy
2:00 PM 82.4 °F 85.4 °F 68.0 °F 62% 29.95 in 6.2 mi ESE 15.0 mph - N/A   Partly Cloudy
3:00 PM 84.2 °F 88.4 °F 69.8 °F 62% 29.95 in 6.2 mi ESE 9.2 mph - N/A   Partly Cloudy
4:00 PM 80.6 °F 83.9 °F 69.8 °F 70% 29.95 in 6.2 mi East 11.5 mph - N/A   Scattered Clouds
5:00 PM 80.6 °F 83.9 °F 69.8 °F 70% 29.98 in 6.2 mi East 11.5 mph - N/A   Scattered Clouds
6:00 PM 80.6 °F 83.2 °F 68.0 °F 65% 29.98 in 6.2 mi East 9.2 mph - N/A   Scattered Clouds
7:00 PM 80.6 °F 83.2 °F 68.0 °F 65% 30.01 in 6.2 mi East 6.9 mph - N/A   Scattered Clouds
8:00 PM 80 °F - 68 °F 60% 30.04 in 34 mi East 6.9 mph - -   Partly Cloudy
8:00 PM 80.6 °F 83.2 °F 68.0 °F 65% 30.04 in 6.2 mi East 6.9 mph - N/A   Scattered Clouds
9:00 PM 80.6 °F 83.2 °F 68.0 °F 65% 30.04 in 6.2 mi East 6.9 mph - N/A   Scattered Clouds
10:00 PM 80.6 °F 83.2 °F 68.0 °F 65% 30.06 in 6.2 mi ENE 8.1 mph - N/A   Scattered Clouds
11:00 PM 79 °F - 69 °F 64% 30.06 in 31 mi East 8.1 mph - -   Scattered Clouds
11:00 PM 78.8 °F - 69.8 °F 74% 30.04 in 6.2 mi East 9.2 mph - N/A   Partly Cloudy